Temperature
19 17 17 17 18 18 18 18 18 18 19 19 18 18 18 18 18 18 19 19 19 19 19 19 19 19 18 18 18 18 18 17 17 17 17 16 16 16 16 16 16 16 16 16
17 17 18 19 19 19 19 18 18 18 19 19 18 17 18 18 18 19 19 19 19 19 19 19 19 19 19 18 18 18 18 17 17 17 17 16 16 16 16 16 16 16 16 16
18 18 20 20 19 19 19 18 18 18 19 19 18 18 17 18 18 19 19 19 19 19 19 19 19 19 19 18 18 18 18 17 17 17 17 16 16 16 16 16 16 16 16 16
18 20 20 20 19 19 18 20 19 19 18 17 18 16 17 17 17 18 18 19 19 19 19 19 19 19 19 18 18 18 18 17 17 17 17 16 16 16 16 16 16 16 15 15
19 20 20 19 20 20 19 20 20 19 18 17 17 17 16 16 17 17 18 19 19 19 19 19 19 19 19 19 18 18 18 17 17 17 17 17 16 16 16 16 16 16 15 15
20 21 20 20 20 21 20 19 19 17 16 16 17 17 16 16 17 18 18 19 19 19 19 19 19 19 19 18 18 18 18 17 17 17 17 17 16 16 16 16 16 16 16 15
19 20 21 21 20 20 18 16 16 16 16 16 17 17 17 17 18 18 18 19 19 19 19 19 19 19 19 18 18 18 17 17 17 17 17 17 17 16 16 16 16 16 16 16
18 18 20 20 19 18 18 17 16 16 16 16 17 17 18 19 19 20 19 19 19 19 19 19 19 19 19 18 18 18 18 17 17 17 17 17 17 16 16 16 16 16 16 16
18 18 20 21 20 19 18 17 16 16 17 16 17 17 18 19 18 18 19 19 19 19 19 19 19 19 19 18 18 18 18 17 17 17 17 17 17 16 16 16 16 16 16 15
18 18 19 20 20 20 18 17 16 16 16 16 17 18 17 18 18 18 18 18 19 19 19 19 19 19 19 18 18 18 18 17 17 17 17 17 16 16 16 16 16 16 16 15
19 18 19 19 19 19 18 18 17 15 15 16 16 17 19 18 18 18 18 18 19 19 19 19 19 19 19 18 18 18 18 17 17 17 17 17 16 16 16 16 16 16 16 15
18 16 17 18 19 20 19 19 17 16 16 15 16 17 19 18 18 18 18 19 19 19 19 19 19 19 18 18 18 18 18 17 17 17 17 16 16 16 16 16 16 16 15 15
19 17 16 17 18 19 19 19 18 16 15 15 16 17 19 18 18 19 19 19 19 19 19 19 18 18 18 18 18 18 17 17 17 17 17 16 16 16 16 16 16 16 15 15
18 16 16 17 17 18 19 20 19 17 16 16 17 18 18 18 18 18 19 19 19 19 19 18 18 18 18 18 18 18 17 17 17 17 16 16 16 16 16 16 16 15 15 15
18 17 18 18 19 19 19 20 20 19 18 17 18 18 18 18 18 19 19 19 18 18 18 18 18 18 18 18 18 18 17 17 17 17 16 16 16 16 16 16 15 15 15 15
17 17 18 18 19 19 19 20 20 20 19 19 18 18 19 19 19 19 19 18 18 18 18 18 18 18 18 18 18 18 17 17 17 17 16 16 16 16 16 15 15 15 15 15
16 17 17 17 18 19 18 19 20 19 20 19 18 18 18 18 18 19 19 19 18 18 18 18 18 19 18 18 18 18 17 17 17 16 16 16 16 16 16 15 15 15 15 15
16 16 15 16 18 18 19 19 20 19 19 19 19 18 18 19 19 19 19 19 19 19 19 19 19 19 18 18 18 17 17 17 17 16 16 16 16 16 15 15 15 15 15 14
16 16 15 15 16 17 19 20 20 19 19 19 18 18 18 19 19 18 19 19 19 19 19 19 19 19 18 18 18 17 17 17 16 16 16 16 16 16 15 15 15 15 14 14
16 15 15 15 17 17 18 19 20 19 18 18 18 18 18 18 16 17 19 19 19 19 19 19 19 18 18 18 18 17 17 17 16 16 16 16 15 15 15 15 15 14 14 14
16 15 15 15 16 16 17 18 19 18 18 19 19 18 18 17 18 19 19 19 19 19 19 19 19 18 18 18 17 17 17 17 17 16 16 15 15 15 15 15 14 14 14 14
16 15 15 15 16 17 18 18 18 17 19 19 19 19 19 19 19 19 19 19 19 19 19 19 18 18 18 18 17 17 17 17 16 16 16 15 15 15 15 14 14 14 13 13
15 15 15 15 16 17 18 18 19 19 19 19 19 19 19 19 19 19 19 19 19 19 18 18 18 18 18 17 17 17 17 16 16 16 15 15 15 15 14 14 14 13 13 13
15 15 14 15 15 16 18 18 19 19 19 19 19 19 19 19 19 19 19 18 18 18 18 18 18 18 17 17 17 17 17 16 16 16 15 15 15 15 14 14 14 13 13 13
15 15 14 14 15 16 17 18 18 18 19 19 19 19 19 19 18 18 18 18 18 18 18 18 18 18 17 17 17 16 16 16 16 15 15 15 14 14 14 14 13 13 13 13
14 15 14 14 15 15 17 17 18 18 18 18 18 18 18 18 18 18 18 18 18 18 17 17 17 17 17 17 16 16 16 16 15 15 15 15 14 14 14 13 13 13 12 12
Wind_Speed
1 3 1 4 5 4 3 2 1 2 2 3 4 5 6 6 6 7 8 8 9 9 8 8 8 8 8 8 8 7 7 6 5 4 4 4 2 2 2 3 6 7 7 8
4 2 7 5 3 3 3 3 1 1 0 2 4 4 6 7 7 9 10 10 10 9 8 9 9 8 8 9 8 8 8 6 6 4 3 3 3 2 1 2 5 7 7 6
4 5 4 3 3 3 3 5 4 3 0 1 3 2 5 6 5 7 8 9 10 12 12 12 11 9 10 9 9 9 8 7 6 5 4 4 4 3 3 3 3 4 6 7
2 3 2 3 3 4 3 4 5 4 3 2 3 3 6 7 7 8 9 10 11 11 11 11 12 10 10 10 9 9 8 7 6 7 6 6 4 3 1 1 1 2 5 6
3 4 4 3 4 4 4 3 3 3 3 0 1 2 6 4 8 10 11 12 12 12 13 13 13 12 10 10 10 9 8 7 6 7 7 7 4 3 1 1 2 3 3 5
5 3 5 5 3 3 2 3 3 3 3 2 5 5 6 6 10 11 11 12 12 12 12 12 12 10 9 9 9 9 8 6 6 6 7 7 6 5 4 3 2 2 2 2
2 2 2 4 2 1 4 5 3 3 2 5 4 4 8 9 10 12 13 12 11 12 12 12 13 12 11 11 10 9 9 7 6 7 6 6 6 6 5 4 3 3 1 1
2 3 4 4 5 5 4 6 5 3 3 4 2 5 7 7 7 8 10 11 11 11 12 13 14 13 12 12 11 10 10 8 7 7 6 5 5 4 3 4 4 3 2 2
4 5 4 5 5 7 4 4 5 4 2 2 4 5 5 2 4 6 9 10 11 12 12 13 12 13 12 12 12 11 11 8 8 7 6 5 5 5 4 4 3 3 2 3
6 3 4 3 3 2 6 6 4 3 2 2 4 4 4 3 4 7 9 11 12 11 11 12 12 12 12 11 10 10 10 9 8 8 6 6 5 5 4 5 5 5 4 4
5 4 3 0 5 6 4 3 4 3 3 3 3 6 5 8 8 10 11 11 11 12 12 12 11 11 10 10 10 9 9 8 8 7 6 6 5 5 5 5 5 5 4 5
4 5 2 6 5 5 6 7 7 4 3 3 3 6 5 6 6 8 10 9 10 11 11 11 11 10 10 11 10 10 10 9 8 8 7 7 6 6 5 5 5 5 6 5
5 5 2 5 5 2 2 4 6 5 4 4 4 6 3 2 4 7 9 8 8 9 10 9 10 11 11 11 11 11 10 9 8 8 7 6 6 6 6 5 5 6 6 6
5 4 5 6 6 4 3 5 5 6 4 5 7 7 5 5 6 7 8 9 9 9 11 11 11 11 11 11 11 11 10 9 9 8 8 7 7 7 6 6 6 6 6 7
5 4 4 6 7 5 5 7 6 7 8 8 8 8 9 9 9 9 9 9 9 10 11 13 13 11 11 11 10 10 10 9 9 9 8 8 7 7 7 7 6 6 6 6
3 3 2 4 6 5 6 8 7 7 6 6 5 7 7 5 5 6 8 11 11 11 12 13 12 12 13 12 12 11 10 10 10 10 9 8 8 7 7 7 7 7 6 5
3 4 2 4 5 2 5 7 6 5 5 6 7 8 4 4 7 9 10 11 12 12 12 13 13 13 13 13 12 12 11 9 10 10 9 9 9 8 8 8 7 6 6 6
6 4 3 1 2 3 6 3 3 3 2 3 3 3 5 7 7 6 7 10 11 11 12 12 12 12 11 10 10 11 10 10 10 10 9 9 9 9 8 8 7 6 5 6
7 7 4 3 2 5 5 2 2 4 2 2 2 1 2 3 5 1 4 7 10 11 11 10 11 11 11 12 12 11 10 10 10 10 10 9 10 10 9 8 7 6 5 5
4 5 5 4 3 4 5 5 3 3 1 3 2 3 2 5 3 4 4 5 6 7 7 8 9 9 11 11 12 12 11 11 11 10 10 9 10 10 10 9 7 5 5 5
2 3 4 4 4 6 6 6 2 4 4 3 2 3 4 4 5 4 4 4 5 6 6 8 9 11 11 12 13 13 12 12 11 9 9 9 9 9 9 7 6 6 6 6
5 4 4 4 3 6 4 2 4 4 3 2 1 2 3 2 2 3 5 5 5 6 6 7 8 9 9 11 13 12 12 10 9 10 9 9 8 8 8 8 6 6 7 7
4 5 5 5 5 4 2 2 2 2 1 0 1 1 3 3 2 3 4 5 6 6 6 6 8 9 8 10 12 13 10 10 11 10 9 8 8 7 7 8 8 6 6 6
2 1 4 2 2 2 1 2 2 1 1 1 1 3 4 3 3 4 4 4 5 5 6 6 8 9 8 8 10 10 10 11 12 11 9 8 8 7 6 6 6 6 6 6
3 2 3 1 2 1 3 2 2 3 4 4 3 2 3 4 3 4 4 4 5 5 5 7 8 9 8 8 8 8 10 11 11 10 9 8 7 7 6 5 5 7 7 8
2 3 4 4 5 4 3 2 2 4 3 3 3 4 3 3 4 4 4 4 5 5 5 6 6 7 7 8 8 8 9 11 11 9 8 7 6 6 6 5 3 2 3 6
Wind_Direction
89 80 202 214 186 182 179 177 206 251 226 143 161 180 194 193 182 186 183 178 180 182 180 167 158 150 142 141 143 143 135 130 122 111 105 99 86 60 45 52 66 70 72 74
56 248 233 217 213 181 185 186 214 319 255 151 158 203 209 207 198 195 188 186 183 171 169 169 163 157 155 156 152 143 142 142 137 133 132 132 128 102 85 48 51 62 70 70
176 236 220 191 203 194 206 193 195 184 174 113 144 264 227 228 205 200 192 189 184 177 175 173 170 169 162 162 162 156 154 147 140 130 111 93 69 49 42 42 31 34 66 71
203 236 195 190 211 188 222 213 176 169 146 241 190 233 247 217 216 209 202 192 189 184 178 175 174 172 172 173 164 156 155 148 144 135 130 131 132 136 168 142 63 36 59 70
231 207 188 203 216 180 203 185 160 175 150 214 231 198 268 210 216 218 209 199 193 188 180 178 176 173 171 166 159 156 151 147 145 142 145 141 139 149 140 99 80 53 40 58
229 221 185 191 207 181 146 71 49 61 84 268 221 193 261 215 210 205 204 200 192 186 181 178 174 167 165 159 152 151 148 148 147 142 144 147 147 141 130 121 109 76 43 36
306 289 208 150 117 78 90 88 45 0 350 256 221 197 248 231 211 198 192 195 190 182 177 172 169 168 166 161 158 154 151 152 152 146 152 156 154 148 149 149 147 134 105 68
181 272 233 186 170 169 164 141 158 194 233 282 265 228 258 251 204 187 181 184 179 177 177 176 176 171 169 166 161 159 158 157 156 156 163 159 154 146 148 153 154 155 152 145
187 245 252 202 172 148 146 175 173 152 234 272 277 282 311 27 137 162 169 174 181 179 177 176 176 172 169 167 167 167 162 157 159 162 160 152 149 142 143 145 140 143 136 121
167 221 246 222 135 167 159 156 113 134 190 265 291 274 249 231 203 183 176 181 185 180 179 175 176 173 170 169 169 165 159 158 162 161 163 153 149 146 136 125 126 128 124 109
157 167 290 189 191 191 154 156 142 150 176 176 259 271 228 203 198 192 191 187 184 181 179 178 177 175 168 162 161 162 160 155 158 159 154 144 144 136 129 127 131 129 120 114
160 135 224 252 250 192 179 184 157 165 216 189 208 269 267 211 197 191 191 188 183 180 178 175 171 166 164 164 165 168 166 163 165 161 151 146 140 131 128 129 129 124 118 115
141 119 76 342 336 349 205 199 173 157 144 180 204 265 281 213 197 194 186 184 177 171 168 167 166 169 171 171 170 170 169 166 161 152 144 140 138 137 138 135 125 120 118 113
123 123 164 198 225 229 243 239 196 156 174 210 223 243 266 234 214 205 190 185 178 172 172 170 172 176 176 174 172 171 171 165 157 150 148 150 152 150 145 137 126 123 120 115
113 154 205 230 240 233 234 246 229 204 196 202 231 229 238 226 211 200 189 178 171 173 175 177 178 177 176 173 172 170 169 164 157 152 154 159 154 143 135 131 127 122 118 117
108 160 197 276 257 255 262 255 238 227 215 215 227 252 245 221 179 174 178 175 178 184 184 183 179 174 175 175 173 169 168 167 158 157 161 156 147 141 139 137 129 123 118 112
142 140 142 267 286 318 279 253 219 218 226 195 214 237 230 177 179 184 182 179 183 187 187 183 183 180 178 176 172 171 170 162 157 158 158 156 151 147 148 142 132 131 130 120
156 142 143 224 25 234 247 259 174 173 246 216 195 210 200 198 190 179 180 182 185 185 186 185 182 179 176 170 165 163 158 158 158 158 160 159 154 152 149 142 142 146 140 134
162 149 139 144 214 275 293 300 193 178 253 252 168 193 217 143 88 32 201 186 187 187 187 185 181 175 170 166 161 154 156 158 160 163 167 166 159 155 153 153 156 154 143 138
113 124 133 142 170 237 257 287 278 122 287 308 168 171 141 110 132 239 225 184 174 175 173 171 166 161 164 165 156 156 162 163 171 173 170 165 161 158 160 161 158 151 144 142
96 106 145 163 204 256 268 290 62 130 239 276 196 172 154 158 195 216 183 168 158 157 161 159 158 164 171 164 159 163 166 176 176 165 160 161 161 160 158 153 151 145 137 129
173 163 174 152 189 248 289 70 141 209 252 214 177 167 160 161 135 134 147 152 149 143 144 150 155 162 164 164 163 167 176 176 158 153 156 162 160 159 155 147 147 144 140 137
177 185 177 177 207 247 290 176 203 161 140 201 161 161 129 124 128 139 145 148 154 152 151 150 153 153 156 164 165 170 174 158 151 152 158 161 155 153 152 152 152 150 150 154
302 131 120 134 268 293 358 31 28 60 109 76 114 127 129 131 145 139 141 146 150 151 152 147 144 151 160 165 165 167 161 156 153 158 162 160 155 152 152 156 160 163 169 170
246 131 115 155 241 47 18 15 41 54 56 59 57 86 126 128 136 140 141 147 154 154 150 148 154 160 164 161 155 154 156 154 154 157 160 160 160 159 160 164 176 181 191 187
243 165 161 207 216 177 220 288 89 83 64 64 66 56 64 118 139 135 136 139 143 146 144 145 148 153 158 156 154 154 157 156 154 158 162 165 164 164 165 163 159 192 190 195
Height
1511 1516 1521 1518 1517 1519 1521 1524 1527 1524 1518 1521 1524 1525 1523 1523 1525 1526 1527 1529 1531 1533 1536 1537 1539 1541 1543 1545 1547 1548 1549 1551 1552 1553 1554 1554 1555 1555 1556 1556 1556 1555 1555 1554
1516 1519 1513 1512 1514 1516 1519 1525 1526 1523 1518 1521 1525 1525 1522 1522 1522 1523 1525 1527 1529 1531 1535 1537 1539 1540 1542 1544 1546 1548 1549 1551 1552 1553 1554 1555 1556 1556 1556 1557 1556 1556 1556 1555
1517 1514 1509 1511 1514 1517 1519 1522 1523 1524 1521 1520 1525 1529 1525 1521 1521 1522 1523 1525 1527 1529 1532 1534 1537 1539 1541 1544 1545 1547 1549 1551 1552 1553 1554 1555 1556 1556 1557 1557 1557 1557 1556 1556
1513 1509 1509 1511 1513 1515 1521 1515 1516 1520 1526 1532 1527 1540 1527 1521 1520 1519 1520 1522 1524 1527 1530 1532 1534 1537 1540 1542 1545 1547 1549 1550 1552 1553 1554 1555 1556 1556 1557 1558 1558 1558 1557 1557
1513 1508 1509 1512 1511 1510 1514 1511 1514 1518 1525 1531 1529 1536 1529 1520 1520 1517 1516 1518 1521 1524 1527 1529 1532 1535 1538 1541 1543 1546 1548 1550 1552 1553 1554 1555 1556 1557 1557 1558 1558 1558 1558 1558
1507 1505 1506 1507 1507 1507 1509 1514 1517 1522 1529 1539 1529 1533 1530 1519 1513 1510 1511 1514 1517 1520 1524 1527 1530 1533 1536 1540 1542 1545 1547 1549 1551 1553 1554 1555 1556 1557 1558 1558 1558 1558 1558 1558
1511 1507 1504 1505 1509 1509 1513 1526 1539 1541 1544 1541 1524 1526 1522 1505 1502 1502 1506 1510 1513 1517 1521 1524 1528 1531 1534 1538 1541 1543 1546 1548 1551 1553 1554 1555 1556 1557 1558 1558 1559 1559 1559 1559
1520 1520 1506 1504 1507 1512 1515 1523 1540 1547 1545 1538 1523 1525 1511 1497 1497 1499 1503 1507 1511 1514 1518 1521 1525 1528 1532 1535 1539 1542 1545 1547 1550 1552 1554 1555 1557 1557 1558 1559 1559 1559 1559 1559
1517 1517 1502 1501 1502 1506 1515 1521 1521 1532 1532 1537 1529 1518 1505 1497 1497 1499 1503 1506 1509 1512 1515 1519 1523 1526 1530 1533 1537 1540 1543 1546 1549 1551 1553 1555 1556 1557 1558 1559 1559 1560 1560 1560
1506 1513 1504 1500 1501 1504 1507 1513 1524 1531 1538 1541 1529 1521 1516 1505 1501 1500 1501 1504 1507 1510 1514 1517 1521 1524 1528 1532 1536 1540 1542 1545 1548 1550 1552 1554 1556 1557 1558 1559 1559 1560 1560 1560
1501 1512 1509 1504 1505 1508 1510 1513 1518 1528 1531 1538 1539 1525 1499 1499 1497 1499 1500 1501 1504 1508 1511 1515 1519 1523 1527 1530 1534 1538 1541 1544 1547 1549 1552 1553 1555 1557 1558 1558 1559 1560 1560 1561
1499 1510 1515 1507 1498 1497 1502 1506 1515 1528 1530 1530 1533 1523 1491 1492 1493 1495 1498 1500 1502 1505 1509 1513 1517 1521 1525 1528 1532 1536 1539 1543 1545 1548 1551 1553 1554 1556 1557 1558 1559 1559 1560 1561
1497 1509 1520 1518 1511 1503 1502 1502 1506 1513 1522 1528 1530 1518 1491 1491 1492 1494 1496 1498 1501 1504 1507 1511 1515 1519 1522 1526 1530 1534 1537 1541 1544 1547 1549 1551 1553 1554 1556 1557 1558 1559 1560 1560
1492 1505 1515 1520 1513 1504 1503 1500 1500 1509 1521 1522 1516 1508 1496 1492 1492 1492 1494 1496 1498 1502 1505 1508 1512 1516 1520 1524 1528 1532 1535 1539 1542 1545 1548 1550 1552 1554 1555 1556 1558 1558 1559 1560
1492 1503 1503 1502 1497 1497 1497 1496 1496 1501 1504 1511 1505 1500 1493 1489 1488 1489 1491 1494 1497 1500 1503 1506 1509 1513 1517 1521 1525 1529 1533 1537 1540 1543 1546 1548 1551 1553 1554 1556 1557 1558 1559 1559
1492 1499 1500 1501 1494 1495 1496 1492 1492 1493 1493 1496 1496 1495 1486 1485 1486 1488 1489 1492 1495 1497 1500 1503 1507 1510 1514 1518 1522 1527 1531 1534 1538 1541 1544 1547 1549 1551 1553 1554 1556 1557 1558 1559
1494 1499 1504 1508 1498 1496 1501 1490 1488 1489 1487 1489 1494 1490 1484 1484 1484 1485 1487 1489 1491 1494 1497 1500 1504 1507 1511 1515 1520 1524 1528 1532 1536 1539 1542 1545 1547 1549 1551 1553 1554 1556 1557 1558
1492 1498 1506 1507 1504 1511 1496 1481 1481 1484 1484 1483 1483 1482 1481 1480 1481 1482 1484 1487 1489 1491 1495 1498 1502 1506 1510 1514 1518 1522 1526 1530 1533 1537 1540 1542 1545 1547 1550 1551 1553 1554 1556 1557
1484 1494 1504 1510 1510 1503 1489 1481 1481 1484 1486 1481 1481 1480 1479 1479 1482 1484 1484 1485 1487 1489 1492 1496 1499 1503 1508 1511 1516 1520 1524 1528 1531 1534 1537 1540 1543 1545 1547 1549 1551 1552 1554 1555
1484 1488 1501 1508 1508 1508 1492 1480 1478 1481 1488 1481 1479 1480 1480 1479 1487 1486 1484 1484 1486 1488 1491 1494 1498 1502 1506 1510 1514 1518 1521 1525 1528 1531 1535 1538 1541 1543 1545 1547 1549 1551 1553 1554
1491 1495 1500 1504 1505 1498 1484 1478 1478 1492 1490 1480 1479 1478 1479 1480 1482 1483 1483 1484 1485 1487 1490 1493 1496 1500 1504 1508 1512 1516 1519 1522 1526 1530 1533 1536 1539 1541 1544 1546 1548 1549 1551 1552
1490 1495 1498 1501 1504 1499 1479 1478 1482 1484 1479 1478 1478 1478 1478 1479 1480 1481 1482 1483 1485 1487 1489 1492 1495 1498 1502 1506 1510 1513 1516 1520 1524 1528 1531 1534 1537 1539 1541 1544 1545 1547 1549 1550
1485 1486 1488 1491 1492 1482 1478 1478 1478 1478 1478 1477 1477 1478 1478 1479 1479 1480 1481 1483 1484 1487 1489 1492 1494 1497 1501 1504 1508 1511 1514 1518 1522 1525 1528 1532 1534 1537 1539 1541 1543 1545 1547 1548
1481 1479 1483 1486 1483 1480 1479 1478 1478 1478 1477 1477 1477 1477 1478 1478 1479 1480 1481 1482 1484 1487 1489 1491 1493 1496 1500 1503 1506 1510 1513 1517 1520 1523 1526 1529 1532 1534 1537 1539 1541 1542 1544 1545
1480 1479 1482 1484 1482 1480 1479 1479 1478 1478 1478 1477 1477 1478 1478 1478 1478 1479 1480 1482 1484 1486 1488 1490 1493 1495 1498 1502 1505 1509 1512 1515 1518 1521 1524 1527 1529 1532 1534 1536 1538 1539 1541 1543
1477 1478 1481 1482 1478 1479 1479 1479 1479 1478 1478 1477 1477 1477 1477 1478 1478 1479 1480 1482 1484 1485 1488 1490 1492 1495 1497 1500 1503 1507 1510 1513 1516 1519 1522 1524 1527 1529 1531 1533 1535 1537 1539 1540